Location: Staunton
(38.1490°N, 79.0720°W)
Time: 20:43:03
(UTC-04:00)

ISS - Pass Details

Date: 28 May 2017
Orbit: 400 x 408 km, 51.6° (Epoch: 21 July)

Event Time Altitude Azimuth Distance (km) Brightness Sun altitude
Rises 21:33:15 0° 267° (W) 2,338 0.8 -11.0°
Reaches altitude 10° 21:35:45 10° 286° (WNW) 1,478 0.2 -11.4°
Maximum altitude 21:38:14 19° 334° (NNW) 1,046 -0.8 -11.7°
Drops below altitude 10° 21:40:42 10° 23° (NNE) 1,480 -0.8 -12.1°
Enters shadow 21:49:02 -15° 57° (ENE) 4,591 1.4 -13.3°
